[[{"header":{"parameterUnit":"m.s-1","parameterCategory":1,"la1":30.2991,"la2":30.254,"lo1":-89.0895,"lo2":-89.0444,"dy":0.0017,"dx":0.0017,"nx":28,"ny":28,"refTime":"2025-07-03T21:00:00:Z","depth":0,"parameterNumber":2,"parameterNumberName":"U-component_of_WINDS"},"data":[0,0,0,0,0,0,0,0,0,0,0,0,0,0,0,0,0,0,0,0,0,0,0,0,0,0,0,0,0,0,0,0,0,0,0,0,0,0,0,0,0,0,0,0,0,0,0,0,0,0,0,0,0,0,0,0,0,0,-3.7864,-3.7865,0,-3.7968,-3.7969,-3.797,-3.7946,-3.7944,-3.7942,-3.794,-3.8046,-3.8051,-3.8055,0,0,0,0,0,0,0,0,0,0,0,0,0,-3.7646,-3.765,-3.7863,-3.7865,-3.7866,-3.7967,-3.7969,-3.797,-3.7947,-3.7944,-3.7942,-3.7939,-3.8045,-3.805,-3.8056,0,0,0,0,0,0,0,0,0,0,0,0,0,-3.7744,-3.7652,-3.7863,-3.7866,-3.7868,-3.7967,-3.7969,-3.7971,-3.7947,-3.7944,-3.7941,-3.7938,-3.8043,-3.805,-3.8057,-3.8159,0,0,-3.8078,-3.8081,0,0,0,0,0,0,0,0,-3.7739,-3.7752,-3.7865,-3.7866,-3.7868,-3.7941,-3.7931,-3.8034,-3.7948,-3.7917,-3.794,-3.7937,-3.8014,-3.8023,-3.8049,-3.8164,-3.8168,-3.8078,-3.8083,-3.8086,-3.8088,0,0,0,0,0,0,0,-3.7732,-3.7748,-3.7905,-3.7866,-3.7869,-3.7863,-3.7874,-3.795,-3.798,-3.7919,-3.7918,-3.7931,-3.8014,-3.8042,-3.8051,-3.817,-3.8078,-3.8084,-3.8089,-3.8092,-3.8378,-3.8381,0,0,0,0,0,0,-3.7724,-3.7742,-3.7901,-3.7908,-3.7795,-3.787,-3.7882,-3.792,-3.798,-3.7986,-3.7933,-3.7929,-3.8032,-3.8043,-3.8055,-3.8181,-3.8086,-3.8092,-3.8096,-3.8375,-3.8379,-3.8383,0,0,0,0,0,0,-3.7719,-3.7738,-3.7897,-3.7825,-3.7845,-3.7877,-3.792,-3.7924,-3.7952,-3.799,-3.7995,-3.7956,-3.803,-3.8045,-3.8134,-3.8184,-3.8095,-3.8102,-3.8371,-3.8376,-3.8381,-3.8432,0,0,0,0,0,0,-3.7713,-3.7737,-3.7775,-3.7826,-3.7848,-3.7974,-3.7923,-3.7928,-3.7964,-3.796,-3.8013,-3.8019,-3.8029,-3.8124,-3.8141,-3.8192,-3.8107,-3.8366,-3.8373,-3.8379,-3.8426,-3.8438,-3.8449,0,0,0,0,0,-3.7705,-3.7784,-3.7777,-3.7796,-3.7897,-3.7977,-3.799,-3.8,-3.7968,-3.8008,-3.8033,-3.8017,-3.8176,-3.8133,-3.8152,-3.8206,-3.8363,-3.8371,-3.8379,-3.8421,-3.8436,-3.8449,0,0,0,0,0,0,-3.7737,-3.7791,-3.7783,-3.7881,-3.7925,-3.7973,-3.8022,-3.8015,-3.8068,-3.8062,-3.8071,-3.8084,-3.8175,-3.8199,-3.8151,-3.831,-3.8265,-3.8277,-3.8291,-3.8305,-3.8316,-3.8309,-3.8113,0,0,0,0,0,-3.7756,-3.7816,-3.7859,-3.7941,-3.7964,-3.799,-3.8025,-3.8029,-3.8075,-3.8093,-3.8124,-3.8169,-3.8229,-3.8268,-3.8326,-3.843,-3.8442,-3.8477,-3.8488,-3.8497,-3.8507,-3.8568,-3.8584,-3.8408,-3.8408,-3.8408,0,0,-3.7794,-3.7831,-3.7868,-3.7949,-3.7983,-3.8047,-3.8005,-3.8073,-3.812,-3.8103,-3.819,-3.8215,-3.8266,-3.8364,-3.8408,-3.8387,-3.8559,-3.8507,-3.8514,-3.8519,-3.8577,-3.8594,-3.8609,-3.8413,-3.8412,-3.8411,0,0,-3.7897,-3.793,-3.8003,-3.804,-3.8093,-3.811,-3.8128,-3.8179,-3.8195,-3.8282,-3.8272,-3.8329,-3.8431,-3.8469,-3.8502,-3.8624,-3.8613,-3.8643,-3.8702,-3.8761,-3.8774,-3.8787,-3.8833,-3.8849,-3.8653,-3.8653,-3.8653,0,-3.7937,-3.8032,-3.8042,-3.8112,-3.8149,-3.8138,-3.8214,-3.8248,-3.8317,-3.8344,-3.8319,-3.845,-3.8484,-3.8592,-3.8622,-3.8648,-3.8671,-3.8636,-3.8772,-3.8784,-3.8796,-3.884,-3.8857,-3.8656,-3.8656,-3.8655,-3.8655,0,-3.8081,-3.8147,-3.82,-3.8269,-3.8312,-3.8384,-3.8407,-3.8449,-3.8451,-3.8471,-3.8563,-3.8603,-3.867,-3.8696,-3.8697,-3.8806,-3.8791,-3.8769,-3.8724,-3.8816,-3.8857,-3.8874,-3.8661,-3.866,-3.8659,-3.8658,0,0,-3.8203,-3.828,-3.83,-3.8332,-3.8393,-3.8444,-3.8517,-3.8584,-3.8622,-3.8671,-3.8733,-3.8823,-3.8804,-3.8842,-3.8847,-3.8899,-3.8996,-3.8871,-3.8872,-3.8894,-3.9122,-3.9139,-3.9158,-3.8989,-3.8993,-3.8995,-3.9118,0,-3.8313,-3.8442,-3.8455,-3.8571,-3.8634,-3.8626,-3.8691,-3.8735,-3.8758,-3.8815,-3.8839,-3.8903,-3.8872,-3.8895,-3.8946,-3.8974,-3.9042,-3.8965,-3.9049,-3.9052,-3.9038,-3.9179,-3.9196,-3.931,-3.9134,-3.9137,-3.9139,0,-3.8456,-3.8512,-3.8635,-3.869,-3.8717,-3.8774,-3.8838,-3.8893,-3.8944,-3.8957,-3.9001,-3.9001,-3.9079,-3.9032,-3.914,-3.9087,-3.9123,-3.9142,-3.9147,-3.9155,-3.9101,-3.9193,-3.9347,-3.9364,-3.9164,-3.9162,-3.916,0,-3.8536,-3.8641,-3.873,-3.8758,-3.8823,-3.8865,-3.8894,-3.8943,-3.8983,-3.904,-3.9067,-3.9131,-3.9166,-3.9217,-3.9236,-3.9199,-3.9344,-3.9297,-3.9358,-3.9358,-3.9389,-3.9387,-3.9552,-3.941,-3.941,-3.941,-3.9409,0,-3.8657,-3.8733,-3.8767,-3.8821,-3.8907,-3.8922,-3.9007,-3.9035,-3.9079,-3.914,-3.9137,-3.9194,-3.9214,-3.9276,-3.9291,-3.938,-3.9395,-3.9409,-3.9412,-3.941,-3.9408,-3.9433,-3.9426,-3.9414,-3.9413,-3.9412,-3.9412,0,-3.8759,-3.8785,-3.8881,-3.8937,-3.8953,-3.9014,-3.9062,-3.9116,-3.9139,-3.9216,-3.9235,-3.927,-3.9343,-3.9367,-3.9453,-3.9463,-3.9568,-3.9564,-3.9551,-3.9551,-3.9612,-3.9606,-3.9799,-3.9827,-3.9666,-3.9668,-3.9669,0,-3.8835,-3.8894,-3.8957,-3.8998,-3.903,-3.9095,-3.9137,-3.9156,-3.92,-3.9267,-3.9313,-3.9385,-3.9443,-3.9559,-3.9593,-3.9661,-3.9659,-3.9722,-3.9669,-3.9666,-3.9662,-3.9659,-3.9666,-3.9732,-3.9734,-3.9735,-3.9736,0,-3.8967,-3.8978,-3.9039,-3.9106,-3.9157,-3.9211,-3.9262,-3.9296,-3.9323,-3.9373,-3.9448,-3.9493,-3.9584,-3.9656,-3.9726,-3.9757,-3.9752,-3.9753,-3.9771,-3.9769,-3.976,-3.9768,-3.9579,-3.9748,-3.9747,-3.9746,-3.9745,-3.9745,-3.9059,-3.9113,-3.9167,-3.9236,-3.9278,-3.9327,-3.9381,-3.9412,-3.9475,-3.955,-3.9558,-3.9639,-3.9693,-3.9787,-3.9822,-3.9887,-3.9869,-3.9894,-3.9901,-3.9907,-3.9913,-3.975,-3.9899,-3.9899,-3.9899,-3.9898,-3.9898,0,-3.9193,-3.9228,-3.9292,-3.9366,-3.9421,-3.9413,-3.9471,-3.9518,-3.959,-3.9641,-3.97,-3.9787,-3.9859,-3.99,-3.9972,-4.0016,-4.0016,-4.0035,-4.0032,-4.004,-3.9924,-3.9902,-4.0034,-4.0034,-4.0034,-4.0034,-4.0034,-4.0034,-3.9268,-3.9359,-3.9377,-3.949,-3.9525,-3.9605,-3.9639,-3.9686,-3.9727,-3.9826,-3.9885,-3.9913,-3.9961,-4.0037,-4.0103,-4.0114,-4.0141,-4.0162,-4.0171,-4.0061,-4.0047,-4.0034,-4.0014,-4.0167,-4.0167,-4.0282,-4.0283,-4.0284]},{"header":{"parameterUnit":"m.s-1","parameterCategory":1,"la1":30.2991,"la2":30.254,"lo1":-89.0895,"lo2":-89.0444,"dy":0.0017,"dx":0.0017,"nx":28,"ny":28,"refTime":"2025-07-03T21:00:00:Z","depth":0,"parameterNumber":3,"parameterNumberName":"V-component_of_WINDS"},"data":[0,0,0,0,0,0,0,0,0,0,0,0,0,0,0,0,0,0,0,0,0,0,0,0,0,0,0,0,0,0,0,0,0,0,0,0,0,0,0,0,0,0,0,0,0,0,0,0,0,0,0,0,0,0,0,0,0,0,-0.6192,-0.6191,0,-0.6137,-0.6137,-0.6136,-0.6065,-0.6064,-0.6063,-0.6061,-0.6008,-0.6008,-0.6008,0,0,0,0,0,0,0,0,0,0,0,0,0,-0.6236,-0.6235,-0.6192,-0.6191,-0.619,-0.6137,-0.6137,-0.6136,-0.6065,-0.6064,-0.6062,-0.6061,-0.6009,-0.6008,-0.6008,0,0,0,0,0,0,0,0,0,0,0,0,0,-0.6203,-0.6235,-0.6192,-0.6149,-0.6144,-0.6138,-0.6137,-0.6136,-0.6065,-0.6064,-0.6062,-0.606,-0.6009,-0.6008,-0.6008,-0.604,0,0,-0.6006,-0.6006,0,0,0,0,0,0,0,0,-0.6205,-0.6201,-0.6156,-0.6152,-0.6147,-0.6106,-0.6133,-0.6104,-0.6066,-0.6095,-0.6061,-0.6059,-0.6043,-0.6039,-0.6033,-0.6038,-0.6035,-0.6006,-0.6006,-0.6006,-0.6006,0,0,0,0,0,0,0,-0.6207,-0.6203,-0.617,-0.6155,-0.615,-0.6132,-0.6126,-0.6127,-0.608,-0.6093,-0.6087,-0.6082,-0.604,-0.6034,-0.6031,-0.6034,-0.6006,-0.6006,-0.6006,-0.6005,-0.6062,-0.6064,0,0,0,0,0,0,-0.6215,-0.6205,-0.6172,-0.6169,-0.6172,-0.6133,-0.6125,-0.6121,-0.6079,-0.6071,-0.6083,-0.6079,-0.6035,-0.6032,-0.6029,-0.6064,-0.6006,-0.6005,-0.6005,-0.606,-0.6062,-0.6064,0,0,0,0,0,0,-0.6217,-0.6213,-0.6174,-0.6185,-0.6179,-0.6134,-0.6129,-0.6121,-0.6114,-0.6072,-0.6064,-0.6086,-0.6034,-0.603,-0.6037,-0.6061,-0.6005,-0.6005,-0.6058,-0.6061,-0.6063,-0.6134,0,0,0,0,0,0,-0.6218,-0.6214,-0.6226,-0.6186,-0.6179,-0.6184,-0.6131,-0.6121,-0.6114,-0.6107,-0.6072,-0.6065,-0.6032,-0.6039,-0.6037,-0.6059,-0.6004,-0.6056,-0.6059,-0.6063,-0.613,-0.6139,-0.6147,0,0,0,0,0,-0.622,-0.6249,-0.6227,-0.6223,-0.6192,-0.6185,-0.6181,-0.6142,-0.6116,-0.6127,-0.61,-0.6066,-0.6058,-0.604,-0.6038,-0.606,-0.6054,-0.6058,-0.6062,-0.6126,-0.6137,-0.6147,0,0,0,0,0,0,-0.6294,-0.6243,-0.6218,-0.6234,-0.6214,-0.6173,-0.6187,-0.6155,-0.6143,-0.6138,-0.609,-0.6083,-0.6097,-0.6079,-0.6059,-0.6089,-0.6051,-0.6055,-0.61,-0.6111,-0.612,-0.6124,-0.6004,0,0,0,0,0,-0.6311,-0.6309,-0.6265,-0.6284,-0.6275,-0.6233,-0.6228,-0.6199,-0.6177,-0.6169,-0.6142,-0.6122,-0.6115,-0.6112,-0.6103,-0.6126,-0.6118,-0.614,-0.6149,-0.6157,-0.6161,-0.6172,-0.6181,-0.6078,-0.6078,-0.6077,0,0,-0.6349,-0.6321,-0.6322,-0.6298,-0.6279,-0.6278,-0.6226,-0.6227,-0.6226,-0.6169,-0.6175,-0.6154,-0.6129,-0.6144,-0.615,-0.613,-0.6187,-0.6162,-0.6168,-0.6168,-0.6177,-0.6187,-0.6196,-0.608,-0.608,-0.6079,0,0,-0.6417,-0.6395,-0.6408,-0.639,-0.6361,-0.6333,-0.6336,-0.6299,-0.6282,-0.6287,-0.6244,-0.6242,-0.6231,-0.6214,-0.6205,-0.6264,-0.6233,-0.6263,-0.6309,-0.632,-0.6328,-0.6335,-0.6357,-0.6366,-0.6267,-0.6267,-0.6267,0,-0.6468,-0.6464,-0.6419,-0.6423,-0.6414,-0.636,-0.6373,-0.6357,-0.6328,-0.6323,-0.63,-0.6285,-0.6264,-0.6275,-0.6289,-0.6283,-0.6286,-0.6268,-0.6331,-0.6337,-0.6343,-0.6364,-0.6372,-0.6271,-0.627,-0.627,-0.627,0,-0.6528,-0.6526,-0.654,-0.6511,-0.6503,-0.6512,-0.6469,-0.6466,-0.6437,-0.6411,-0.6416,-0.6389,-0.6373,-0.6373,-0.6346,-0.638,-0.6369,-0.6339,-0.6301,-0.6358,-0.6376,-0.6383,-0.6277,-0.6275,-0.6274,-0.6273,0,0,-0.6643,-0.6588,-0.6594,-0.658,-0.6544,-0.6542,-0.6547,-0.6531,-0.653,-0.6511,-0.6515,-0.6506,-0.6477,-0.6466,-0.6436,-0.6446,-0.6495,-0.6415,-0.6414,-0.6432,-0.6531,-0.6555,-0.6565,-0.6473,-0.6474,-0.6475,-0.6534,0,-0.6705,-0.6711,-0.6671,-0.6688,-0.6686,-0.6633,-0.6638,-0.6617,-0.6592,-0.6586,-0.6559,-0.6553,-0.6516,-0.6509,-0.6516,-0.6488,-0.6515,-0.6483,-0.6477,-0.6478,-0.6487,-0.6574,-0.6599,-0.6656,-0.6541,-0.6542,-0.6543,0,-0.6779,-0.6763,-0.678,-0.6741,-0.6739,-0.6744,-0.6725,-0.672,-0.6694,-0.6675,-0.6662,-0.6627,-0.663,-0.6592,-0.6596,-0.6575,-0.657,-0.6556,-0.6557,-0.6556,-0.6515,-0.6577,-0.6673,-0.6682,-0.6553,-0.6553,-0.6552,0,-0.6863,-0.6845,-0.6852,-0.6842,-0.6797,-0.6802,-0.6784,-0.6756,-0.6748,-0.6732,-0.6726,-0.6711,-0.6703,-0.6692,-0.6654,-0.6629,-0.6662,-0.6621,-0.6647,-0.6648,-0.6658,-0.6658,-0.6756,-0.6653,-0.6653,-0.6652,-0.6652,0,-0.6937,-0.695,-0.6889,-0.6894,-0.6907,-0.6859,-0.6873,-0.6849,-0.6825,-0.6824,-0.6778,-0.6779,-0.6727,-0.6722,-0.6692,-0.67,-0.6697,-0.6682,-0.6674,-0.6687,-0.6689,-0.6684,-0.668,-0.6655,-0.6654,-0.6654,-0.6653,0,-0.7034,-0.6993,-0.6998,-0.6955,-0.6944,-0.6955,-0.6918,-0.6921,-0.6892,-0.6892,-0.6889,-0.6844,-0.6836,-0.6796,-0.6778,-0.6758,-0.6777,-0.676,-0.6786,-0.6781,-0.681,-0.6808,-0.6909,-0.692,-0.6809,-0.681,-0.6811,0,-0.7085,-0.7093,-0.705,-0.7046,-0.7029,-0.7023,-0.7015,-0.6968,-0.6961,-0.6931,-0.6938,-0.6925,-0.6913,-0.6902,-0.6868,-0.6854,-0.6838,-0.6874,-0.6836,-0.6848,-0.684,-0.684,-0.6841,-0.6883,-0.6885,-0.6886,-0.6887,0,-0.7181,-0.7159,-0.7149,-0.7131,-0.7122,-0.7105,-0.7086,-0.7086,-0.7034,-0.7028,-0.7018,-0.7009,-0.699,-0.6978,-0.6958,-0.6939,-0.6905,-0.6898,-0.6904,-0.6918,-0.6933,-0.6926,-0.681,-0.6897,-0.6896,-0.6895,-0.6895,-0.6894,-0.7257,-0.7261,-0.7231,-0.722,-0.7201,-0.7184,-0.7184,-0.7154,-0.7145,-0.7125,-0.7098,-0.7092,-0.7064,-0.7034,-0.7018,-0.7012,-0.6993,-0.7001,-0.7003,-0.7006,-0.7013,-0.6932,-0.7008,-0.7008,-0.7008,-0.7007,-0.7007,0,-0.735,-0.7328,-0.7318,-0.7293,-0.7284,-0.725,-0.7227,-0.7222,-0.7217,-0.7194,-0.7182,-0.717,-0.7158,-0.7123,-0.7107,-0.711,-0.7093,-0.7107,-0.7108,-0.7104,-0.7031,-0.7028,-0.7121,-0.7121,-0.7121,-0.7121,-0.7121,-0.7121,-0.7399,-0.7405,-0.738,-0.7376,-0.7353,-0.7346,-0.7336,-0.7319,-0.7301,-0.7289,-0.7279,-0.7255,-0.7227,-0.7208,-0.7196,-0.7185,-0.7182,-0.7202,-0.7187,-0.712,-0.7109,-0.7099,-0.7096,-0.7201,-0.7202,-0.726,-0.7261,-0.7261]}]]